Voltar ao catálogo

CZ-6A DEB

AtivoPO
NORAD 61150·DEBRIS·🇨🇳 China

Lançado Aug 6, 2024 de Taiyuan Satellite Launch Center

Loading…

Próximas Passagens (próximas 24 horas)

TLE

AtualizadoSource: Space-Track

Época: Sep 14, 2026, 10:53 UTC

1 61150U 24140QU  26257.45392630  .00007520  00000-0  97636-3 0  9996
2 61150  88.9205 250.2432 0064331 234.9711 124.5466 14.79180208110526

Acompanhe CZ-6A DEB em tempo real com AllMySat

Download on the App Store